Location: Easter Hill Village
(37.9235°N, 122.3444°W)
Time: 04:48:24
(UTC+00:00)

Cosmos 2026 Rocket - Pass Details

Date: 16 September 2019
Orbit: 939 x 1001 km, 82.9° (Epoch: 18 October)

Event Time Altitude Azimuth Distance (km) Brightness Sun altitude
Exits shadow 12:14:59 - 189° (S) 3,186 6.4 -19.5°
Reaches altitude 10° 12:16:16 10° 190° (S) 2,707 6.0 -19.3°
Maximum altitude 12:22:29 79° 277° (W) 1,004 3.9 -18.1°
Drops below altitude 10° 12:28:50 10° 4° (N) 2,763 6.6 -16.9°
Sets 12:31:24 0° 6° (N) 3,722 7.4 -16.4°
